Location: Joffre
(52.3362°N, 113.5373°W)
Time: 18:01:20
(UTC+00:00)

Envisat - Visible Passes

Search period start: 27 November 2021 00:00
Search period end: 07 December 2021 00:00
Orbit: 764 x 766 km, 98.2° (Epoch: 26 November)

Date Brightness Start Highest point End Pass type
(mag) Time Alt. Az. Time Alt. Az. Time Alt. Az.
27 Nov 6.0 01:13:03 10° WSW 01:15:57 15° W 01:18:52 10° NW visible
27 Nov 5.3 11:34:41 10° NE 11:38:35 22° E 11:42:28 10° SE visible
27 Nov 2.9 13:13:01 10° N 13:18:05 66° WNW 13:23:07 10° SSW visible
28 Nov 5.2 00:34:14 10° SSW 00:38:38 29° W 00:43:04 10° NNW visible
28 Nov 6.1 10:59:52 10° ENE 11:01:11 11° E 11:02:29 10° E visible
28 Nov 3.3 12:36:08 10° NNE 12:41:13 66° ESE 12:46:16 10° S visible
28 Nov 4.0 14:15:49 10° N 14:19:50 24° WNW 14:23:51 10° WSW visible
29 Nov 4.6 11:59:31 10° NNE 12:04:09 34° E 12:08:45 10° SSE visible
29 Nov 3.3 13:38:30 10° N 13:43:17 42° WNW 13:48:03 10° SW visible
30 Nov 5.8 01:00:44 10° SW 01:04:14 19° W 01:07:46 10° NW visible
30 Nov 5.6 11:23:28 10° NE 11:26:54 18° E 11:30:18 10° SE visible
30 Nov 2.9 13:01:26 10° NNE 13:06:32 80° WNW 13:11:37 10° SSW visible
30 Nov 4.4 14:41:41 10° NNW 14:44:50 17° NW 14:47:57 10° W visible
01 Dec 4.8 00:22:21 10° SSW 00:26:59 35° W 00:31:39 10° NNW visible
01 Dec 3.7 12:24:37 10° NNE 12:29:37 54° E 12:34:35 10° S visible
01 Dec 3.8 14:04:05 10° N 14:08:24 28° WNW 14:12:41 10° WSW visible
02 Dec 6.2 01:28:19 10° WSW 01:29:56 11° W 01:31:33 10° WNW visible
02 Dec 4.9 11:48:08 10° NE 11:52:30 28° E 11:56:50 10° SSE visible
02 Dec 3.1 13:26:51 10° N 13:31:48 51° WNW 13:36:41 10° SW visible
03 Dec 5.6 00:48:35 10° SW 00:52:32 23° W 00:56:31 10° NW visible
03 Dec 5.8 11:12:24 10° NE 11:15:11 15° E 11:17:56 10° ESE visible
03 Dec 3.0 12:49:52 10° NNE 12:54:59 85° ESE 13:00:05 10° SSW visible
03 Dec 4.2 14:29:52 10° N 14:33:25 20° NW 14:36:58 10° W visible
04 Dec 4.4 00:10:32 10° S 00:15:21 43° W 00:20:13 10° NNW visible
04 Dec 4.1 12:13:07 10° NNE 12:18:01 44° E 12:22:50 10° S visible
04 Dec 3.6 13:52:23 10° N 13:56:56 34° WNW 14:01:28 10° SW visible
05 Dec 6.0 01:15:31 10° WSW 01:18:12 14° W 01:20:53 10° NW visible
05 Dec 5.2 11:36:48 10° NE 11:40:50 23° E 11:44:49 10° SE visible
05 Dec 2.9 13:15:14 10° N 13:20:16 62° WNW 13:25:17 10° SSW visible
06 Dec 5.3 00:36:34 10° SSW 00:40:52 27° W 00:45:12 10° NW visible
06 Dec 6.0 11:01:39 10° ENE 11:03:26 12° E 11:05:13 10° ESE visible
06 Dec 3.2 12:38:18 10° NNE 12:43:25 70° ESE 12:48:29 10° S visible
06 Dec 4.1 14:18:04 10° N 14:22:00 23° WNW 14:25:54 10° WSW visible
